Temp
31 29 28 27 28 29 29 29 29 29 30 27 26 25 24 23 23 25 27 27 27 26 25 25 24 24 24 25 26 25 24 23 22 22 23 22 19 19 21 20 20 20 19 18 17 17 17 18 18 19 19 19 19 19 19 19 19 19 19 19 19 19 19 19 20 20 20 20 20 20 20 20 20 20 19 19 19 18 18 18 18 18 18 18 18 18
30 27 27 29 30 30 29 30 29 29 30 28 25 25 25 24 24 26 27 27 28 26 25 26 25 25 25 25 27 26 24 24 22 22 23 23 22 19 20 21 20 19 19 19 18 17 18 18 18 19 19 19 19 19 19 19 19 19 19 19 19 19 19 19 19 19 19 19 19 19 20 20 19 19 19 19 19 18 18 18 18 18 18 18 18 18
28 27 29 30 30 30 30 30 29 29 30 29 26 24 23 25 26 26 27 27 28 26 25 26 26 25 25 26 27 27 25 25 24 25 25 24 24 20 18 20 20 19 19 19 18 18 18 18 18 19 20 20 19 19 19 19 19 19 19 19 19 19 19 19 18 19 19 18 18 18 19 19 19 19 19 19 19 19 19 18 18 18 17 17 18 18
25 27 30 30 29 30 29 30 30 29 29 29 27 24 23 26 26 23 25 27 28 27 27 27 26 25 26 26 26 26 26 26 26 26 26 25 24 20 18 19 19 18 19 18 18 19 18 18 19 19 20 20 19 19 19 19 19 19 19 19 19 19 19 18 18 18 18 18 18 18 18 19 19 19 19 19 19 19 19 18 18 17 17 17 17 17
27 29 30 30 30 29 29 29 30 29 27 28 28 26 25 27 26 25 26 28 28 28 28 27 24 24 26 26 26 26 26 25 25 25 26 25 22 19 19 18 18 19 19 18 18 18 18 17 19 20 20 20 19 19 19 19 19 19 19 19 18 18 18 18 18 18 18 18 18 18 19 19 19 19 19 19 19 19 18 18 18 17 17 17 17 17
29 30 30 29 30 29 29 29 30 28 26 26 28 28 27 28 28 28 28 27 25 24 27 26 21 21 25 26 26 27 26 26 26 26 27 26 21 20 20 18 18 19 19 18 18 17 17 16 17 19 20 20 19 19 19 19 19 19 19 18 18 18 18 18 18 18 18 18 18 19 19 19 19 19 18 18 18 18 18 18 17 17 17 17 17 17
29 30 30 29 29 29 29 29 29 29 25 24 27 29 29 29 28 28 27 25 22 22 26 27 22 20 23 25 27 27 26 26 27 27 27 25 20 20 21 20 19 19 18 18 17 17 17 16 16 19 20 20 20 20 19 19 19 19 19 18 18 18 18 18 18 18 18 18 18 18 19 19 19 19 18 18 18 18 18 17 17 17 17 17 17 17
30 30 29 29 29 29 28 28 29 30 26 24 28 29 29 29 28 28 27 25 23 24 25 26 24 21 21 23 27 27 26 26 25 26 27 24 20 20 21 20 20 19 18 18 17 16 16 16 17 19 20 20 20 20 19 19 19 19 18 18 18 18 18 18 18 18 18 18 18 18 18 19 19 19 19 19 19 18 18 17 17 17 17 17 17 17
30 29 29 29 29 28 28 29 30 30 27 26 29 29 28 29 28 28 27 25 25 24 22 23 24 21 20 23 27 27 26 25 24 25 26 23 20 20 21 20 20 19 19 18 17 17 16 16 17 19 20 20 20 20 19 19 19 19 18 18 18 18 18 18 18 18 18 18 18 18 18 18 19 19 19 19 18 18 18 18 17 17 17 17 17 17
30 29 29 29 28 28 28 29 30 29 28 28 29 29 29 29 29 29 27 25 24 23 20 22 23 22 21 22 25 25 24 25 24 24 25 24 22 22 21 20 20 19 19 19 18 17 17 16 18 19 20 20 20 20 19 19 19 18 18 18 18 18 18 18 17 18 18 18 18 18 18 18 18 18 19 19 18 18 18 18 18 17 17 17 17 16
29 30 30 29 29 29 29 29 29 29 29 29 29 29 28 29 29 28 27 25 22 21 21 22 24 23 21 22 24 25 25 26 25 24 25 25 24 23 21 20 20 19 19 19 19 18 18 18 19 20 20 20 20 20 19 19 18 18 18 18 18 18 18 18 17 18 18 18 18 18 18 18 18 18 18 18 18 18 18 18 17 17 17 17 16 16
30 29 29 29 29 29 29 29 29 30 29 29 29 28 25 25 25 24 24 24 21 21 22 23 25 23 21 21 25 27 27 28 26 25 24 25 24 23 22 21 21 20 20 20 20 19 19 20 20 20 20 21 20 19 19 19 18 18 18 18 18 18 18 18 17 17 17 18 17 17 17 18 18 18 18 18 18 18 18 17 17 17 17 17 16 16
28 29 29 30 30 29 29 28 28 29 29 29 28 25 22 21 22 21 21 22 21 21 23 24 24 23 21 23 27 28 28 28 27 26 26 26 24 23 22 22 22 21 21 21 20 20 20 20 20 20 21 21 20 19 19 19 18 18 18 18 18 18 18 18 17 17 17 17 17 17 17 17 17 18 18 18 18 17 17 17 17 17 16 16 16 15
25 28 29 29 29 29 29 27 25 26 28 28 26 23 21 21 21 21 21 21 21 21 23 25 24 22 22 25 27 29 29 29 29 28 27 27 26 25 24 23 23 22 22 21 21 20 20 21 21 21 21 20 20 20 19 19 19 19 19 18 18 18 18 18 18 18 17 17 17 17 17 17 17 17 18 18 17 17 17 17 17 16 16 16 16 15
22 23 27 28 28 28 29 29 27 27 27 28 29 27 23 22 21 21 21 21 21 21 22 24 23 21 21 24 28 30 30 30 30 29 28 27 26 26 26 25 23 23 23 23 22 22 21 21 21 21 21 20 20 20 19 19 19 19 19 19 18 18 18 18 18 18 17 17 17 17 17 17 17 17 18 17 17 16 16 17 16 16 16 15 15 15
22 22 27 29 28 29 29 29 30 28 26 27 30 27 23 24 23 21 21 21 21 21 21 22 22 23 25 27 29 30 30 30 30 29 29 28 27 26 26 25 24 24 24 24 23 23 23 23 22 21 21 20 20 19 19 19 19 19 19 19 19 18 18 18 18 17 17 17 17 17 17 17 17 17 17 17 16 16 16 16 16 16 15 15 15 15
22 23 28 29 28 29 29 29 30 28 25 26 27 24 25 28 26 22 21 22 21 21 21 22 22 24 26 27 29 30 29 30 29 28 28 28 28 27 26 26 25 24 24 24 24 24 23 23 22 21 20 20 19 19 19 19 19 19 19 19 19 18 18 18 18 17 17 17 17 17 17 17 17 17 17 16 16 16 16 16 16 16 15 15 15 15
23 22 28 29 28 29 29 29 29 29 28 26 24 25 27 28 27 23 21 21 21 20 21 22 21 22 23 23 27 29 28 28 29 28 28 28 28 27 26 26 26 25 25 25 25 24 24 23 21 21 20 19 19 18 18 19 19 19 19 19 19 18 18 18 18 17 17 17 17 16 17 17 17 17 17 16 16 16 16 16 16 15 15 15 15 15
26 22 25 30 28 28 30 28 27 29 30 27 26 28 27 24 23 23 21 21 21 20 21 21 22 22 22 23 26 27 27 28 28 28 28 28 27 27 26 26 26 26 25 25 25 25 24 23 22 21 20 19 19 18 18 18 19 19 19 19 19 18 18 18 18 17 17 17 17 16 17 17 17 17 16 16 17 17 17 16 16 15 15 15 14 14
27 23 22 28 29 28 29 27 24 25 28 29 28 29 28 24 23 22 22 22 21 20 21 21 21 22 23 26 27 27 27 27 27 28 28 28 27 26 26 25 24 25 25 25 25 25 24 23 22 21 20 20 19 18 18 18 19 19 19 19 19 18 18 18 17 17 17 17 17 17 17 17 17 17 16 16 16 16 16 16 15 15 15 15 14 14
27 24 21 26 29 27 26 26 25 25 26 26 25 25 25 25 25 24 23 22 22 21 21 21 21 21 25 29 29 27 27 27 27 28 27 28 27 26 25 25 24 24 24 24 25 25 24 23 23 21 20 20 19 18 18 18 19 19 19 19 19 18 18 18 17 17 17 17 17 17 17 17 17 16 16 16 16 16 15 15 15 15 15 15 14 14
25 24 22 22 24 24 24 28 28 27 27 26 25 24 24 24 23 22 22 22 22 21 21 21 20 21 26 29 29 28 28 28 28 27 27 28 27 26 25 25 25 25 25 24 25 25 25 24 23 22 21 20 19 19 18 18 19 20 19 19 19 18 18 18 17 17 17 17 17 17 17 17 16 16 16 16 16 15 15 15 15 14 15 15 14 14
24 24 22 21 23 25 26 29 29 28 28 27 26 26 26 25 23 21 20 21 22 21 21 21 20 22 27 29 28 28 28 28 28 27 27 28 28 26 26 25 25 25 25 25 25 25 25 24 24 22 21 20 19 19 19 19 20 20 20 19 19 19 18 18 18 17 17 17 16 16 16 16 16 16 16 15 15 15 15 15 14 14 15 14 14 14
24 24 22 21 24 26 27 28 29 28 27 25 25 26 26 25 24 23 22 22 21 21 21 21 20 22 26 28 28 28 28 28 28 27 27 27 27 27 26 25 25 24 24 25 24 24 24 24 24 23 22 21 20 19 19 19 20 20 20 20 19 19 19 18 18 18 17 17 17 16 16 16 16 16 15 15 15 14 14 14 14 14 14 14 14 14
23 23 22 21 21 22 23 24 25 26 25 24 25 26 26 25 25 24 23 22 21 21 21 21 20 22 26 27 27 28 28 27 27 28 27 27 27 27 26 25 25 24 25 24 24 23 22 22 23 24 23 22 20 20 20 21 21 21 20 20 20 19 19 18 18 18 17 17 16 16 16 16 16 15 15 15 14 14 14 14 14 14 14 14 14 14
23 23 22 21 20 20 21 21 21 23 24 24 24 25 25 25 25 23 22 21 20 21 21 21 20 22 26 27 26 27 27 27 27 27 27 27 27 27 26 25 24 24 24 24 24 24 22 21 22 23 23 22 21 20 21 22 22 21 20 21 20 19 19 19 18 18 17 17 16 16 16 16 15 15 15 15 14 14 14 14 14 14 14 14 14 14
23 23 23 22 21 21 21 22 23 24 22 22 23 24 25 25 25 24 22 20 21 21 21 21 22 22 24 25 26 26 26 26 26 26 26 26 26 26 27 26 25 25 25 25 24 23 22 22 22 22 21 21 21 21 22 22 22 22 21 21 20 20 19 19 18 18 17 17 16 16 16 16 16 16 15 15 14 14 14 14 14 14 14 14 14 14
22 22 23 23 22 23 23 24 25 25 23 23 23 24 24 25 25 23 21 21 22 21 20 22 23 21 22 25 25 25 25 25 25 25 26 26 26 26 26 26 27 26 26 26 25 23 23 23 22 21 20 19 19 20 21 22 22 22 22 21 21 20 20 19 18 18 17 17 17 17 16 16 16 15 15 15 14 14 15 14 14 14 14 14 14 14
22 21 22 23 22 23 24 24 25 24 24 24 24 24 24 24 24 23 22 23 23 21 20 22 23 22 23 25 25 25 25 25 25 26 26 26 26 26 26 26 26 27 27 27 27 25 23 23 22 21 20 19 18 18 20 23 23 22 22 22 21 20 20 19 19 18 17 17 17 17 16 16 16 15 15 15 14 14 15 14 14 14 13 13 14 14
22 21 23 23 22 23 24 24 25 24 24 24 24 24 24 24 24 24 23 24 24 22 23 23 23 23 24 25 25 26 26 26 26 26 26 26 26 26 26 26 26 27 27 27 27 26 24 23 22 21 19 19 19 19 18 20 23 23 22 22 21 21 20 19 19 18 17 17 17 17 16 16 16 15 15 15 15 14 14 14 13 13 13 13 13 13
21 21 22 22 21 22 23 24 25 24 23 23 23 24 24 24 24 24 24 24 24 23 23 24 22 23 25 26 25 25 26 26 26 25 25 25 25 25 25 25 25 26 26 26 27 26 24 23 23 22 19 18 19 19 18 18 21 22 22 22 21 21 20 19 19 18 18 18 17 17 17 16 16 15 15 15 15 14 14 14 13 13 13 13 13 13
22 21 22 22 20 20 22 23 24 24 23 22 22 23 24 23 23 24 24 24 24 23 23 22 21 22 25 26 25 25 25 25 25 25 25 25 25 24 24 25 25 25 26 26 26 26 25 24 24 23 21 20 20 19 19 19 19 20 22 22 21 21 20 19 19 19 18 18 17 17 17 16 16 16 15 15 15 15 14 14 13 14 13 13 13 13
23 22 21 21 20 20 22 23 23 23 21 20 21 23 23 23 23 24 24 24 24 24 22 22 22 24 25 25 25 25 25 25 25 25 25 24 24 24 24 25 25 25 25 26 26 26 26 25 24 23 23 22 21 20 20 20 19 19 21 22 22 21 20 19 19 19 18 18 18 17 17 17 16 16 15 15 15 15 14 14 14 14 13 13 13 13
23 22 21 21 20 20 21 22 22 21 20 21 23 24 24 24 23 23 23 24 24 24 24 24 24 25 25 25 25 24 25 25 25 25 25 25 24 24 24 24 24 24 24 25 25 25 25 25 24 23 23 23 23 21 20 20 20 20 20 21 22 21 20 19 19 19 19 18 18 18 17 17 17 16 16 16 15 15 14 14 14 14 13 13 13 13
23 22 21 21 20 20 21 21 20 19 20 23 25 25 25 25 24 23 23 24 24 24 25 24 24 25 25 25 25 25 25 25 25 25 25 25 24 24 24 24 24 24 24 24 24 23 23 24 24 23 23 23 23 22 21 20 21 20 20 21 22 21 20 20 20 19 19 19 18 18 17 17 17 16 16 16 15 15 15 14 14 13 13 13 12 13
23 22 21 21 20 20 20 20 19 20 22 24 25 25 25 25 24 23 22 23 24 24 24 24 24 25 25 25 25 25 25 25 25 25 25 25 24 24 24 24 24 24 24 23 23 22 22 22 23 23 23 23 23 23 22 21 21 20 20 21 22 21 20 20 20 20 19 19 18 18 18 17 17 16 16 16 15 15 15 14 14 13 13 13 13 13
23 22 21 20 20 20 20 20 20 21 22 23 23 24 24 23 23 22 21 22 24 24 24 24 24 24 24 25 25 25 25 25 24 24 25 25 24 24 24 24 24 24 24 24 23 22 21 21 22 22 22 23 23 23 23 22 22 21 20 21 22 21 21 20 20 20 20 19 19 18 18 18 17 17 16 16 15 15 15 14 14 13 13 13 13 13
24 22 21 20 20 20 20 20 20 20 20 21 23 24 24 23 24 23 21 21 23 24 24 24 24 24 24 24 25 25 24 23 23 23 24 24 24 24 24 24 24 24 25 24 23 22 22 21 21 21 21 22 23 23 22 22 22 21 21 21 22 22 21 21 20 20 20 20 19 19 18 18 17 17 16 16 15 15 15 14 13 13 13 13 13 13
23 22 22 21 20 20 20 19 19 19 20 22 24 24 24 23 23 23 21 20 23 25 25 24 24 24 24 24 24 24 23 22 21 22 23 23 24 24 24 24 24 24 24 25 24 23 23 22 21 21 21 21 22 22 22 22 22 22 22 22 22 22 21 21 21 21 20 20 19 19 18 18 18 17 17 16 15 15 15 14 13 13 13 13 13 13
22 22 21 20 20 20 20 19 20 20 21 23 24 24 24 24 23 21 19 20 23 24 24 23 23 23 23 23 23 23 22 21 21 22 23 23 23 24 24 24 24 24 25 25 24 23 23 23 22 21 21 21 21 21 21 22 23 23 22 22 22 22 21 21 21 21 21 20 20 19 19 18 18 17 17 16 16 15 15 14 14 13 13 13 13 13
21 20 20 20 20 20 20 19 20 21 22 24 25 24 25 24 21 19 19 21 22 23 23 23 23 22 23 23 22 22 22 22 22 22 23 23 23 23 23 23 24 24 24 24 24 23 23 23 23 22 22 21 21 21 20 21 22 22 22 22 21 22 21 21 21 21 21 20 20 19 19 18 18 17 17 16 16 15 15 14 14 13 13 13 13 13
20 20 20 20 19 20 20 20 20 20 22 23 23 24 24 22 19 19 21 22 23 23 23 23 23 22 23 22 22 22 22 23 23 23 23 23 22 23 23 23 23 23 24 24 24 23 23 23 23 23 22 21 21 21 20 20 21 21 22 22 22 22 22 21 21 21 20 20 19 19 19 19 18 17 17 16 16 15 14 14 14 13 13 13 13 13
20 19 19 20 20 20 20 19 19 20 21 21 22 23 23 21 21 22 23 23 23 23 22 22 23 23 22 22 22 22 22 22 22 22 22 22 22 23 23 23 23 23 23 23 24 24 23 23 23 23 23 22 21 21 21 21 21 21 22 22 22 22 21 21 21 21 20 19 18 18 18 19 18 17 17 16 16 15 14 14 14 13 13 13 13 13
21 20 19 20 21 20 19 19 20 21 22 22 22 21 22 22 23 23 23 22 22 22 22 22 22 23 23 22 22 22 22 22 22 22 22 22 22 22 22 23 23 23 23 23 23 24 23 23 23 23 23 23 22 21 21 21 21 21 21 21 21 21 21 21 21 21 20 20 18 17 18 19 18 17 17 16 15 15 14 14 14 13 13 13 13 13
21 21 20 19 20 20 20 20 22 22 22 23 22 21 22 23 23 23 23 22 22 22 22 22 22 22 22 22 22 22 22 22 22 22 22 22 22 22 22 22 23 23 23 23 23 23 23 23 23 23 23 23 22 21 21 21 21 21 21 21 21 21 21 21 21 21 20 20 19 17 18 19 18 17 17 16 15 15 14 14 14 13 13 13 13 13
22 22 21 20 20 21 21 21 21 21 22 22 22 22 21 21 22 22 22 22 21 21 22 22 22 22 22 22 22 22 22 21 21 21 22 22 22 22 22 22 23 23 22 22 23 23 23 23 23 23 23 23 22 22 21 21 21 21 21 21 21 21 21 21 21 21 20 20 19 19 19 18 17 17 17 16 15 15 14 14 14 13 13 13 13 13
22 22 21 21 20 20 20 20 21 22 22 21 21 22 21 21 21 22 21 21 21 21 21 21 21 22 22 22 21 21 21 21 21 21 21 22 22 22 22 22 22 23 22 22 22 23 23 23 23 23 23 22 22 22 21 21 21 21 21 21 21 21 21 21 21 21 20 20 20 19 19 18 17 17 17 16 16 15 15 14 14 13 13 13 13 13
21 20 20 20 20 20 20 21 22 22 22 22 22 22 22 21 21 21 21 21 22 21 21 21 21 21 21 21 20 20 21 21 21 21 21 21 21 21 22 22 22 23 23 22 22 22 22 22 23 23 23 23 22 22 22 21 21 21 21 21 20 20 20 21 20 20 20 20 20 19 19 18 18 17 17 16 16 15 15 15 14 14 14 14 14 14
21 20 20 20 20 20 20 21 22 21 22 22 22 22 22 21 21 21 21 21 21 21 22 22 22 22 21 21 21 21 21 21 21 21 21 21 21 21 21 22 22 22 23 22 22 22 22 22 22 23 23 23 22 22 22 22 21 21 21 21 21 20 20 20 20 20 20 20 20 19 19 18 18 17 17 16 16 16 15 15 15 14 14 14 14 14
19 19 20 19 19 19 20 21 21 20 20 21 21 21 21 21 21 21 21 21 21 21 21 21 22 22 22 21 21 21 21 21 21 21 21 21 21 21 21 21 21 22 22 22 22 22 22 22 22 22 22 23 22 22 22 22 22 22 21 21 21 21 21 20 20 20 19 19 19 19 19 18 18 17 17 17 16 16 16 15 15 15 15 14 14 14
19 19 19 19 18 18 20 20 20 20 19 20 20 20 21 21 20 20 20 21 21 21 21 21 21 21 21 21 22 22 21 21 21 21 21 21 21 21 21 21 21 21 22 22 22 22 22 22 22 22 22 22 22 22 22 22 22 22 22 21 21 21 21 20 19 19 19 19 19 19 19 18 18 17 17 17 16 16 16 16 15 15 15 15 14 14
Height
742 755 761 761 758 756 755 753 756 753 751 766 772 772 777 781 780 773 769 766 765 775 780 779 785 788 787 782 776 779 784 786 790 791 790 792 799 802 801 803 806 806 807 808 808 809 810 811 813 815 817 818 818 818 818 818 818 818 818 819 819 819 819 818 818 817 817 817 817 818 818 819 819 820 820 820 820 820 820 820 819 819 819 818 818 817
748 764 763 755 754 753 754 754 754 752 748 760 774 773 770 773 774 769 768 766 763 774 779 775 778 781 781 778 770 773 782 787 789 789 787 786 791 798 801 801 804 805 804 806 807 809 811 812 813 815 816 817 818 819 819 819 819 819 819 819 819 819 819 818 818 818 818 817 817 817 817 818 818 819 820 820 820 820 820 819 820 819 819 818 818 817
762 766 758 751 753 753 753 753 754 754 752 758 770 778 775 767 766 768 767 764 764 771 775 773 776 779 777 773 769 771 776 780 780 778 778 779 782 794 802 800 801 804 804 806 807 808 811 812 813 814 815 816 817 819 819 819 819 819 819 819 819 819 818 818 818 818 818 817 817 817 818 818 818 819 819 820 819 820 819 819 819 819 819 818 818 817
770 763 753 751 753 755 754 752 753 753 753 758 763 772 773 762 765 777 774 765 761 764 768 768 773 777 774 771 770 771 771 771 772 771 770 773 779 793 803 800 800 804 805 807 807 808 810 812 812 814 815 816 817 819 819 819 819 819 819 818 818 818 818 818 817 817 817 817 817 817 818 818 818 819 819 819 819 819 819 819 819 819 819 819 818 818
764 755 750 752 753 756 758 754 752 754 759 760 757 763 767 760 761 770 769 762 760 762 761 765 780 780 770 771 771 768 769 771 774 774 769 771 782 794 801 801 801 802 802 804 806 809 811 812 812 813 815 816 817 818 819 818 819 818 818 818 818 818 817 817 817 817 816 816 817 817 817 817 818 818 819 819 819 819 819 819 819 819 819 819 818 818
757 753 750 755 755 754 758 755 751 755 763 763 759 760 761 758 758 759 761 763 771 777 765 767 795 796 773 770 771 765 768 770 769 769 767 772 786 792 793 798 800 800 802 803 804 808 811 815 816 814 814 816 817 818 818 818 818 818 818 818 818 817 817 817 816 816 816 816 816 816 817 817 817 818 819 819 819 819 820 820 820 820 819 819 819 818
754 751 751 757 757 756 757 754 752 755 764 767 761 756 756 756 758 758 760 766 778 784 769 764 792 803 784 772 768 766 769 769 767 766 765 774 790 792 788 792 796 798 802 803 804 806 808 814 817 814 813 815 816 817 817 818 818 818 818 818 818 817 817 817 816 816 816 816 817 817 817 817 818 818 818 819 819 819 820 820 820 820 820 820 819 819
753 752 754 755 756 759 759 757 755 755 763 768 758 755 758 756 758 759 760 766 770 773 772 768 781 800 800 781 766 765 768 770 773 771 766 776 789 789 785 789 792 796 800 802 804 804 805 809 810 809 811 813 814 816 816 817 817 817 817 817 817 817 817 817 817 816 817 817 817 817 818 818 818 818 818 819 819 819 820 820 820 820 820 820 820 820
753 757 758 756 756 760 760 755 752 754 763 764 755 755 758 756 758 757 758 764 764 772 786 780 775 796 805 783 764 766 770 774 779 774 768 777 786 787 786 788 791 793 796 798 801 803 803 804 804 806 808 810 812 814 815 816 816 816 817 817 817 817 817 817 817 817 816 817 817 818 818 818 818 819 819 819 819 820 820 820 820 820 820 820 820 820
754 757 756 758 760 761 760 754 750 757 762 758 754 755 755 754 756 756 760 763 765 779 793 781 771 789 798 780 767 771 772 773 777 773 768 772 778 781 784 786 789 792 794 796 798 800 801 801 802 804 806 808 810 811 814 815 815 816 816 817 817 817 817 817 817 817 817 817 818 818 818 819 819 819 819 819 819 820 821 821 821 821 821 821 821 821
754 752 752 757 760 758 757 754 752 757 757 754 756 756 756 755 755 760 762 762 777 792 789 774 765 775 792 786 771 769 767 765 770 773 771 771 773 778 782 783 786 790 792 793 796 797 799 800 801 803 805 807 808 810 812 814 814 815 816 816 817 817 817 817 817 817 817 818 818 818 819 819 819 820 820 820 820 820 821 821 821 821 821 821 821 821
755 756 756 755 755 755 756 755 753 753 752 756 759 758 766 769 766 771 768 769 794 801 780 765 758 766 789 789 769 762 760 756 763 770 771 771 773 776 779 780 782 786 788 790 793 795 797 799 800 802 804 805 806 808 811 812 814 815 816 816 817 816 817 817 818 818 818 818 818 819 819 820 820 820 820 820 820 821 821 821 822 822 822 822 822 822
761 758 756 754 752 753 759 760 756 752 752 757 759 763 781 790 790 797 794 788 797 792 769 759 762 770 779 773 760 757 755 752 755 760 762 765 770 773 776 777 779 782 786 788 790 792 794 796 797 799 801 803 805 807 809 811 812 814 815 816 816 816 816 817 818 818 818 818 818 819 819 820 820 820 821 821 821 822 822 822 822 822 823 823 823 823
775 766 755 755 755 754 759 764 766 763 758 760 761 769 787 798 808 816 808 798 798 790 769 757 765 777 774 765 758 752 749 747 747 751 756 759 763 768 770 772 776 779 782 785 786 789 790 792 794 797 799 802 803 805 806 808 810 813 814 815 816 816 816 817 817 817 818 818 818 819 819 820 820 820 821 821 821 822 823 823 823 823 824 824 824 824
788 784 764 760 762 759 758 758 763 765 763 761 754 760 777 786 800 810 806 803 802 792 776 764 771 781 777 766 754 744 741 740 741 746 752 756 759 762 764 768 773 776 778 781 782 785 787 789 792 794 797 799 801 802 804 805 807 810 813 814 815 815 816 816 817 817 818 818 818 819 819 820 820 821 821 821 822 823 823 823 823 824 824 824 825 824
784 782 762 757 759 759 761 754 753 762 769 763 751 761 774 773 779 791 793 792 793 796 789 777 774 768 759 753 743 740 741 739 742 746 748 754 758 760 764 767 772 774 775 777 779 782 784 786 789 792 795 797 798 800 802 803 804 807 811 814 814 815 815 816 816 817 817 818 818 819 819 820 820 821 821 821 822 823 824 824 824 825 825 825 825 825
786 781 760 758 760 756 759 756 752 763 773 767 763 771 770 760 767 785 791 783 787 803 795 776 773 761 751 754 746 743 747 744 746 751 752 755 756 759 765 766 769 773 773 774 776 779 781 783 786 789 792 795 795 798 801 802 802 804 810 814 814 815 815 815 816 816 817 817 818 818 819 820 820 821 821 822 823 823 824 825 825 825 825 826 826 826
784 786 763 757 764 756 752 758 756 755 763 770 775 771 762 760 764 778 796 796 797 809 794 775 777 770 766 770 757 749 754 753 751 752 754 756 756 759 764 764 767 768 770 773 773 775 779 782 785 788 790 793 794 797 801 802 801 802 808 813 814 814 814 814 815 815 816 816 817 818 819 820 821 821 822 822 823 823 824 824 825 826 826 826 827 826
776 790 772 754 763 759 749 759 765 756 754 765 769 761 763 780 784 782 796 805 807 812 801 783 778 770 767 770 761 757 761 758 755 754 754 756 757 760 762 764 767 767 769 772 772 774 778 781 784 786 789 792 795 797 800 802 800 801 807 812 814 814 814 814 815 815 815 816 816 818 818 820 820 821 822 822 823 823 824 824 825 826 827 826 827 827
771 792 790 762 757 761 757 764 774 768 759 758 761 760 762 776 786 786 789 795 804 810 804 794 788 775 762 757 758 761 760 759 759 758 757 757 758 762 764 766 769 769 770 771 771 773 775 779 782 784 787 790 793 796 799 801 800 799 805 811 814 814 814 814 814 814 815 815 816 817 818 819 820 821 822 822 823 823 824 824 825 826 827 826 826 827
771 788 798 775 758 764 770 771 774 774 770 768 771 774 772 771 775 781 783 781 790 804 806 805 802 782 757 749 754 758 759 760 760 759 759 757 759 763 765 767 770 771 771 770 770 770 773 777 780 783 787 789 791 794 797 799 798 799 805 810 812 813 813 813 813 814 814 814 815 816 817 818 819 820 821 822 823 823 824 825 826 826 827 826 826 827
780 788 797 790 778 778 777 766 762 767 768 771 775 776 776 777 781 795 800 784 779 792 797 801 807 789 758 748 752 756 758 757 756 759 760 757 759 763 765 767 768 769 769 768 768 768 771 775 779 782 786 788 790 793 795 796 796 798 803 807 810 811 811 812 812 813 813 813 814 815 817 818 819 820 821 822 823 823 824 825 826 826 826 826 826 827
784 789 797 797 786 779 773 761 760 764 762 768 775 773 773 778 785 802 811 796 787 791 788 791 803 789 760 750 753 756 757 755 756 760 760 757 757 760 764 766 766 767 767 766 766 768 771 774 777 781 784 787 789 790 792 793 794 797 802 805 808 809 809 810 811 811 812 812 813 814 816 817 818 819 820 821 823 823 824 825 825 826 826 826 827 827
786 791 798 799 785 773 768 761 759 762 767 778 780 774 775 781 783 790 796 794 797 800 793 799 806 786 760 753 755 756 756 756 757 758 759 760 758 760 764 765 766 767 766 766 767 770 772 775 777 779 782 785 787 788 790 791 792 796 800 803 805 806 807 808 809 810 810 811 812 813 815 816 817 819 820 821 822 823 824 824 825 825 825 826 827 827
794 796 800 807 805 797 789 783 779 776 778 786 783 777 778 780 781 786 788 792 803 801 795 805 809 785 762 757 758 757 757 758 757 756 759 761 760 760 763 764 765 766 766 767 768 770 774 776 777 778 780 782 785 787 788 789 791 794 798 800 802 803 805 806 807 808 809 809 810 812 814 815 816 818 819 821 822 823 823 824 824 825 825 826 827 827
797 799 801 811 821 821 814 808 802 795 789 788 785 782 782 781 783 789 793 801 808 801 793 801 801 782 765 761 762 761 761 761 760 758 758 759 759 759 760 763 765 764 765 767 767 769 772 774 775 776 777 780 784 785 785 786 788 792 795 797 799 801 802 803 805 805 806 808 809 810 812 814 815 817 818 820 821 822 823 823 824 824 825 826 827 827
797 798 797 804 809 809 807 800 793 791 794 793 788 783 781 781 781 785 795 803 801 798 798 795 790 785 777 770 768 767 766 766 765 763 762 760 760 759 759 760 760 760 761 763 763 766 768 769 771 772 775 780 783 782 781 783 785 788 791 794 796 798 800 801 803 803 805 806 807 809 811 812 814 816 817 819 820 821 822 822 823 824 825 826 826 827
799 802 797 797 796 791 790 788 783 785 790 789 785 783 781 780 780 786 795 795 791 801 807 791 784 791 787 774 771 770 767 767 766 764 763 761 761 760 759 757 757 757 757 756 757 760 763 765 767 768 771 777 783 783 780 780 782 784 787 790 793 795 797 799 801 802 803 805 806 808 809 811 813 814 816 818 819 821 821 822 823 824 824 825 826 827
799 806 798 794 795 790 786 785 782 783 784 782 782 783 781 781 782 786 789 785 785 797 800 786 783 789 782 773 770 767 765 766 764 762 761 760 760 759 757 757 756 754 753 752 753 754 758 760 762 765 767 771 778 783 782 779 779 781 784 786 789 792 794 796 799 800 801 803 804 806 808 810 811 813 815 817 818 820 821 821 822 823 824 825 826 827
800 805 797 795 798 792 787 785 781 781 784 782 780 779 778 779 779 780 780 777 777 784 783 778 781 781 774 770 767 762 761 761 759 759 759 760 759 758 757 756 755 753 752 751 750 750 753 757 759 763 766 767 771 778 783 782 779 778 781 784 786 789 791 794 796 798 799 801 803 805 807 808 810 812 814 815 817 819 819 820 822 822 823 824 825 826
803 807 799 798 804 798 788 782 780 782 786 786 783 778 776 778 779 778 777 774 775 780 778 776 782 780 769 764 764 763 761 759 759 760 761 760 760 760 760 758 757 755 753 752 751 750 752 756 758 761 765 767 768 772 779 783 781 779 779 781 783 786 788 791 793 795 797 798 801 803 805 807 808 810 812 814 815 817 818 820 821 822 823 824 825 826
801 807 801 802 812 807 791 784 782 780 785 791 788 781 778 779 779 776 774 773 775 779 780 781 785 781 768 762 765 765 762 761 762 762 761 761 761 763 763 760 758 757 754 752 751 751 752 754 756 759 762 765 767 769 772 776 780 782 779 778 781 783 785 788 790 792 795 796 799 801 803 805 806 808 810 812 814 815 817 819 820 821 822 823 824 825
797 803 802 804 813 808 793 788 785 785 795 799 788 779 777 777 776 773 770 770 770 773 779 783 779 773 765 762 765 766 764 764 763 761 761 763 763 765 764 761 759 758 755 754 752 751 751 751 753 756 759 762 764 767 768 770 775 780 780 778 779 780 783 786 788 791 792 794 797 799 801 803 805 806 809 810 812 814 815 817 818 820 821 822 823 825
795 800 802 803 810 809 797 788 789 800 810 798 776 770 773 774 776 778 774 770 768 768 770 771 767 764 763 763 764 765 764 763 762 760 759 761 764 766 765 763 762 761 758 756 754 753 752 751 753 756 758 760 762 764 766 768 769 774 778 779 779 779 782 784 787 789 790 792 795 797 799 801 802 804 807 808 810 812 814 816 817 818 820 821 822 824
794 798 801 801 807 808 798 795 808 816 802 778 764 765 767 765 768 774 774 771 768 766 764 765 765 762 762 761 761 762 761 760 760 758 757 759 763 766 766 765 764 762 760 759 757 757 755 755 756 757 758 759 761 762 765 767 767 770 774 778 778 778 780 783 785 787 789 790 793 795 797 799 801 803 805 806 808 810 812 814 815 816 818 819 821 822
792 797 801 803 804 805 802 807 816 806 781 766 765 764 762 764 768 775 780 775 768 765 765 765 764 761 760 760 758 758 759 759 758 758 758 760 762 763 765 765 764 762 760 759 759 759 759 758 758 759 759 759 760 761 763 765 767 769 772 776 777 777 779 781 783 785 787 788 790 793 795 797 799 800 802 804 806 808 810 812 813 815 817 818 820 821
786 794 802 806 805 804 807 807 801 793 784 778 773 766 766 770 772 777 784 778 767 764 764 763 762 762 761 759 757 757 758 760 763 762 759 760 762 762 763 763 763 761 759 759 760 760 760 760 760 760 760 759 760 761 762 764 766 767 771 774 775 775 777 779 780 782 784 786 788 790 792 794 796 798 800 802 804 806 808 809 811 813 815 816 818 820
782 790 797 806 805 800 805 807 802 804 801 785 772 767 766 769 768 770 782 781 766 760 761 761 763 764 762 760 759 758 761 768 772 769 764 763 764 763 763 762 761 760 759 758 759 759 760 760 759 759 761 762 761 761 761 763 764 766 769 772 772 773 775 776 778 780 781 783 785 787 789 792 794 796 798 800 802 804 806 807 809 811 813 815 816 818
783 786 790 801 805 801 805 810 808 808 798 778 768 766 766 768 767 771 787 786 766 756 759 762 764 765 764 764 763 763 768 777 779 773 768 767 765 764 764 763 761 761 760 758 759 760 760 760 760 761 763 764 763 762 762 762 763 765 767 768 769 771 772 774 775 776 778 780 782 785 787 790 792 794 796 798 800 802 804 806 808 810 811 813 815 816
789 790 793 802 805 800 803 806 801 796 785 769 764 764 763 764 769 786 803 792 766 759 762 763 766 767 765 766 767 767 772 778 778 773 768 766 766 765 764 764 763 761 760 758 759 760 760 760 761 762 763 764 763 763 764 763 762 763 765 766 767 769 770 771 773 774 776 778 781 783 785 787 790 792 794 796 798 800 802 804 806 808 810 812 813 815
794 797 799 802 802 799 801 803 797 788 776 764 761 761 759 764 779 799 802 782 765 765 766 764 767 769 766 768 769 769 770 771 771 770 767 766 767 765 764 764 763 761 760 759 759 760 760 760 760 761 762 762 762 763 765 765 764 764 764 765 766 767 767 769 771 773 776 778 780 782 784 786 788 790 792 795 796 798 801 803 805 807 808 810 812 814
796 799 798 799 801 798 795 796 796 788 773 763 762 760 761 776 792 792 779 767 765 768 767 765 768 768 767 768 769 769 769 767 767 767 766 766 766 764 763 763 761 761 760 759 759 759 759 759 759 759 760 761 761 763 765 765 765 765 765 765 765 765 766 768 770 772 774 776 779 781 782 784 786 788 791 793 795 796 799 801 803 805 807 809 811 812
794 801 800 795 795 795 794 796 801 795 777 765 766 766 768 778 782 773 765 766 767 767 768 768 767 766 767 768 767 768 768 766 767 767 765 765 764 763 763 762 761 761 760 759 758 757 757 758 758 758 758 759 761 762 763 764 764 764 764 764 763 764 766 767 768 770 772 775 778 781 781 782 784 787 789 791 793 795 797 799 802 804 806 808 809 811
786 793 798 792 787 793 799 796 789 781 770 764 769 774 771 769 766 764 766 768 766 766 769 768 766 765 766 766 766 767 767 766 766 766 765 765 764 763 762 761 760 760 759 758 757 756 756 757 756 757 758 758 759 761 761 762 763 763 764 763 763 763 764 764 766 768 769 771 775 779 781 780 782 786 788 790 792 794 795 797 800 802 804 806 807 809
782 782 789 791 786 786 789 783 772 767 766 765 767 770 769 766 764 765 766 766 766 767 767 767 767 766 765 765 766 766 765 766 765 764 765 764 763 762 762 760 759 759 758 757 757 755 755 755 754 755 757 757 757 759 760 760 761 761 761 762 762 762 762 763 764 765 766 768 771 776 778 779 781 784 787 789 791 792 793 795 797 799 802 804 805 807
774 773 779 784 782 779 777 774 769 768 768 766 766 767 768 768 766 765 765 767 768 769 767 766 767 765 764 764 764 764 764 764 763 763 763 762 761 761 759 758 757 756 756 756 755 754 753 753 753 753 754 754 756 756 757 759 759 759 759 760 761 761 761 761 762 762 764 766 768 770 773 776 778 782 785 787 789 790 791 793 794 797 799 801 803 805
771 773 777 779 781 783 782 775 769 768 768 767 767 767 767 769 768 766 766 766 766 766 766 765 765 764 763 763 763 763 763 761 762 762 760 759 759 758 757 756 754 753 753 753 753 752 752 751 751 750 750 751 752 753 754 756 756 757 758 759 759 760 760 760 761 761 762 763 765 767 770 772 775 778 782 785 787 789 790 791 792 794 795 797 800 801
775 777 781 780 780 782 780 772 766 764 763 762 764 765 764 766 766 765 765 764 763 764 765 763 763 763 762 763 763 763 761 759 760 760 758 757 757 756 755 754 752 750 750 750 750 750 750 749 748 748 747 748 749 750 751 752 753 754 755 756 757 759 760 760 759 760 760 761 763 765 767 769 772 775 778 781 784 786 787 787 789 790 791 792 794 796
778 778 780 780 779 778 775 769 766 766 764 762 763 764 764 764 764 764 764 763 762 762 761 759 760 759 760 761 761 759 759 758 756 755 756 755 754 753 753 752 749 748 747 747 747 747 747 746 746 745 745 745 746 747 747 747 749 750 751 752 754 755 756 758 758 758 759 759 761 763 764 767 769 772 774 777 780 782 783 783 784 785 787 788 790 792
781 781 778 780 784 782 777 771 770 773 772 767 765 765 764 764 764 764 763 762 760 759 759 758 757 757 757 758 757 756 756 755 753 752 752 751 750 751 750 749 748 746 745 745 745 744 744 744 743 743 743 743 743 744 744 744 745 745 747 748 750 750 752 754 755 756 757 757 758 760 762 764 766 769 771 774 776 779 780 780 781 782 783 785 787 789
780 780 779 782 784 780 774 770 769 771 771 767 765 765 764 764 764 764 762 762 760 758 758 757 756 755 755 755 755 754 753 752 751 750 749 748 748 748 747 748 747 745 744 743 742 741 741 741 741 740 740 740 740 741 741 742 742 742 743 744 745 747 748 750 752 754 754 755 755 757 758 760 763 765 768 770 773 775 776 777 779 780 781 783 784 786
Wind_Speed
2 4 2 2 5 7 9 8 7 9 2 10 3 2 4 4 2 1 1 4 6 6 3 2 5 7 10 13 11 11 10 11 11 10 9 9 10 8 8 10 9 6 9 13 12 10 12 14 14 13 13 12 11 9 8 8 7 7 6 5 4 3 1 2 3 4 6 6 5 4 3 3 5 4 4 7 7 7 7 7 7 7 8 8 9 9
2 5 3 4 8 8 6 6 7 10 5 8 6 1 1 3 2 2 2 3 5 6 2 3 6 6 7 11 8 10 10 10 12 13 11 11 12 11 10 10 10 8 10 13 12 10 11 13 16 15 14 14 13 10 9 8 8 7 7 6 5 3 2 3 4 4 5 5 5 5 5 4 5 5 5 6 4 5 5 5 6 7 8 9 9 10
2 4 3 7 7 6 5 3 6 7 5 5 7 5 2 1 4 3 2 4 6 4 2 4 4 3 7 10 5 6 9 10 12 13 12 12 10 10 11 10 9 10 11 11 11 11 12 13 15 15 15 15 12 9 8 8 8 7 7 6 5 4 3 3 3 4 4 4 5 5 6 5 5 5 4 3 2 3 4 5 5 7 10 9 8 10
2 1 5 7 5 7 8 2 4 5 2 4 1 3 2 1 3 3 4 7 7 3 3 3 3 4 8 10 8 7 9 7 8 11 9 10 7 7 11 11 8 9 11 12 11 11 11 12 15 15 13 12 11 8 9 8 8 7 7 6 5 4 4 3 2 3 2 2 3 4 4 4 5 6 5 4 4 5 6 8 8 7 8 9 9 9
1 7 6 5 3 5 9 5 5 4 2 4 4 4 5 4 3 5 3 3 4 2 4 2 3 3 3 5 7 7 9 10 12 13 10 10 11 9 12 12 9 10 10 12 11 10 8 8 12 15 12 11 11 10 10 9 8 7 7 7 6 4 4 3 2 2 1 2 2 1 2 2 3 6 7 6 6 7 8 9 9 7 8 9 10 10
5 8 5 7 5 3 6 6 4 3 3 3 4 5 7 6 5 4 3 1 0 2 1 2 4 1 1 4 4 3 5 8 10 11 6 7 13 11 12 14 12 10 7 8 10 9 7 6 10 13 14 13 12 11 11 10 9 8 8 7 6 5 4 3 2 2 3 4 4 3 4 4 4 6 8 6 4 7 8 7 7 6 8 9 10 10
3 3 2 3 5 3 5 3 6 5 5 2 5 4 8 6 4 3 1 2 2 3 4 2 3 2 3 4 1 3 5 6 7 8 5 9 12 8 8 12 13 11 8 6 8 9 10 10 13 13 15 15 13 11 11 11 10 9 9 8 6 6 5 4 3 3 3 3 4 4 5 5 5 6 6 3 2 5 6 6 6 6 7 9 9 10
2 3 2 3 2 2 5 3 7 5 6 4 6 5 8 7 5 5 4 4 3 2 3 2 1 1 2 4 3 2 5 5 6 6 4 12 12 9 8 11 12 12 11 9 8 9 11 13 14 13 14 15 12 12 12 11 11 10 9 8 7 6 6 5 4 3 3 3 3 4 3 3 3 4 3 1 4 7 6 5 7 6 7 9 9 10
3 7 7 5 4 2 4 5 7 4 5 6 7 6 7 8 7 6 5 4 3 1 2 2 5 3 1 3 2 1 4 3 2 2 5 12 13 11 9 12 12 11 13 11 10 9 10 13 15 13 14 15 13 13 13 12 11 11 10 9 8 7 7 6 5 4 4 4 3 3 3 3 3 2 2 3 6 7 5 5 6 7 7 8 9 10
2 6 9 8 7 3 4 8 7 5 6 6 7 7 5 5 4 6 5 4 4 3 4 1 5 3 1 2 1 2 3 2 6 7 7 11 14 13 11 11 12 11 11 11 11 11 12 16 17 15 14 15 15 14 13 12 12 11 11 10 9 8 7 7 6 5 5 4 4 3 3 3 2 2 3 4 5 5 5 6 6 7 7 8 9 10
3 3 5 4 6 7 6 6 3 5 7 6 8 8 5 4 1 4 5 4 5 4 5 4 2 4 2 2 1 1 3 1 6 7 8 10 11 13 12 10 12 12 10 10 11 12 15 17 18 16 15 16 16 15 13 12 12 12 11 11 10 9 8 7 6 6 6 4 4 4 3 3 2 2 2 1 3 4 5 6 6 6 7 8 9 9
2 3 2 1 3 6 8 5 3 3 3 4 6 5 3 3 1 3 4 3 3 3 3 5 6 6 3 1 2 4 6 1 9 11 11 12 13 14 13 11 12 12 12 11 11 12 14 15 16 17 17 17 17 17 15 13 13 12 12 12 11 10 9 8 8 7 6 5 5 5 4 3 2 2 2 2 4 6 6 7 7 7 8 9 10 10
2 1 1 1 2 3 7 5 3 5 4 4 4 3 3 4 2 4 5 2 4 4 4 5 7 6 2 2 2 2 4 2 8 12 12 12 14 16 14 13 12 11 12 12 11 12 11 11 15 17 17 17 17 17 16 15 14 13 12 13 12 11 10 9 9 8 7 6 6 5 4 3 3 2 1 2 5 6 6 6 7 8 9 10 10 9
2 2 4 3 5 2 7 6 2 2 2 4 4 3 3 4 4 5 4 4 4 4 6 7 6 5 2 3 4 4 1 3 4 10 13 11 13 16 15 14 14 12 13 12 11 12 11 12 16 18 17 18 18 18 18 16 16 14 14 14 13 12 11 10 10 9 8 7 6 5 4 3 3 2 1 2 5 5 5 6 7 8 9 9 9 9
4 3 2 3 4 4 8 5 6 6 5 5 6 4 3 4 4 5 4 5 5 5 7 8 5 4 3 1 5 6 2 2 4 8 11 12 12 13 13 14 15 13 12 12 12 13 13 15 19 19 19 20 20 20 20 19 18 16 15 15 15 14 13 12 11 10 9 8 7 5 4 4 3 2 3 4 5 4 5 5 6 8 8 8 8 7
7 3 4 1 4 4 9 6 6 5 4 4 6 3 3 4 4 4 4 5 6 5 6 5 4 2 2 2 3 2 4 3 6 7 6 8 11 11 10 11 12 11 11 11 12 12 14 17 20 20 20 20 20 21 21 21 20 17 16 16 16 15 14 14 13 11 10 9 8 6 5 4 4 3 4 5 5 4 5 5 6 6 7 7 7 6
5 5 4 1 6 5 6 8 5 4 4 4 4 3 5 6 5 5 4 2 3 5 4 3 4 4 2 0 2 3 3 5 7 9 8 6 8 10 9 9 11 11 11 11 11 11 13 16 19 20 18 18 21 23 22 21 21 18 17 17 17 17 16 15 14 13 12 10 8 7 6 6 5 4 4 4 4 4 4 3 4 5 6 6 6 6
3 5 3 3 4 4 1 6 7 7 6 5 4 5 7 5 3 3 3 3 4 5 4 5 6 6 3 1 1 1 3 5 5 6 8 5 5 7 8 9 11 10 11 11 11 10 12 15 17 17 16 17 23 26 22 20 20 19 18 19 19 19 18 17 16 14 13 11 9 8 7 7 6 5 5 5 4 4 4 4 4 4 4 5 6 5
3 5 4 2 4 3 3 3 6 5 4 4 5 6 5 3 2 3 3 4 6 5 4 6 8 6 4 3 3 2 3 4 3 4 4 3 4 4 4 8 12 9 8 9 9 8 10 13 17 17 16 18 22 23 21 19 19 20 19 20 20 20 19 18 16 15 14 12 10 10 9 8 7 6 6 5 4 3 3 4 4 2 2 3 4 5
3 3 4 3 3 3 0 2 3 1 4 4 5 5 4 4 4 4 4 4 5 6 5 6 7 5 3 4 3 2 3 4 4 4 4 4 6 7 6 8 11 9 5 6 7 8 11 13 17 19 18 19 20 20 21 20 18 20 21 21 21 20 19 18 17 15 15 13 11 11 11 9 8 8 7 5 4 4 3 3 3 2 2 3 5 4
3 2 3 4 5 4 2 2 4 4 2 3 4 4 4 4 3 4 4 4 4 5 6 5 5 5 4 5 4 5 5 2 4 4 3 4 7 10 8 8 9 6 5 7 7 8 11 14 17 19 19 20 19 19 22 22 19 21 23 23 22 22 20 19 18 17 15 14 13 12 12 10 9 8 7 5 5 5 3 1 2 1 2 4 6 3
3 3 4 6 5 5 5 5 4 5 6 6 5 5 5 5 4 5 4 5 4 4 5 6 5 5 5 4 4 6 3 1 2 4 4 3 5 9 7 6 6 3 3 6 9 8 8 12 16 18 18 18 18 19 21 21 21 23 24 24 23 23 21 20 19 18 16 15 15 14 12 11 10 9 8 7 6 5 4 3 1 0 1 4 5 2
4 4 5 6 6 6 8 8 5 5 7 8 6 7 7 5 4 5 5 5 6 6 6 6 6 4 4 5 5 4 5 5 4 3 5 5 3 7 7 4 3 1 2 1 6 7 7 10 14 17 18 18 18 19 20 21 23 24 25 25 24 23 22 21 19 18 17 17 16 15 14 13 12 10 10 9 7 5 4 4 2 1 1 3 3 1
5 4 4 6 7 6 8 8 5 4 7 6 6 6 5 4 4 4 6 6 5 6 6 5 7 4 2 5 5 2 3 4 2 2 3 5 4 5 6 4 3 2 2 4 3 5 6 8 11 14 17 18 17 18 19 22 25 25 26 26 25 24 23 22 21 19 18 18 17 16 15 14 13 12 11 10 8 6 4 4 3 2 1 3 2 1
4 4 4 5 6 5 5 4 3 3 4 4 5 6 6 7 7 5 5 6 5 7 9 6 6 5 2 4 4 5 4 4 4 3 2 4 3 2 4 5 3 2 2 0 2 5 6 6 9 13 15 16 16 18 22 26 26 25 27 26 24 25 24 23 22 21 19 19 18 17 16 16 15 13 12 11 9 8 5 4 5 3 1 2 2 2
3 4 5 5 5 6 5 4 4 5 5 5 6 8 9 10 10 7 5 5 5 7 9 7 6 7 5 4 4 7 7 7 7 7 6 6 5 2 1 5 5 5 6 5 4 5 8 9 11 12 13 15 18 21 23 26 27 25 26 27 25 25 25 24 23 22 21 20 20 18 17 17 16 14 14 12 10 9 6 5 5 4 3 2 3 3
4 4 5 7 7 7 7 8 8 8 8 9 10 11 10 10 11 9 6 6 7 7 7 8 8 9 9 9 8 8 8 7 8 9 8 7 5 5 4 3 4 5 5 7 8 8 9 9 9 8 6 8 17 23 24 25 27 27 26 26 25 25 25 24 24 23 22 21 20 19 18 18 17 15 15 13 11 9 7 6 5 4 4 4 4 4
3 5 6 9 11 10 11 11 11 11 11 12 13 13 11 11 11 9 7 8 8 7 8 9 10 11 11 11 11 11 10 9 8 9 8 7 6 7 8 7 7 7 7 8 9 11 11 10 9 9 9 6 11 18 23 26 25 26 27 26 25 25 25 25 24 23 22 21 20 19 19 19 17 16 15 14 12 10 8 7 6 5 5 5 4 4
3 5 7 9 11 11 12 12 11 12 12 12 13 13 12 13 12 10 9 11 10 8 10 12 12 13 12 13 14 12 10 10 10 9 8 8 9 10 10 10 11 11 10 10 7 10 13 12 9 9 12 13 7 12 15 22 25 24 25 26 25 25 25 25 24 23 23 22 20 20 19 19 18 17 16 15 13 11 9 8 7 7 7 6 5 4
3 4 6 8 10 11 11 12 12 12 12 12 13 13 13 14 15 14 13 13 12 10 12 13 13 13 12 11 13 11 8 8 8 6 6 8 8 9 10 10 11 10 8 7 7 3 11 11 9 9 9 14 17 10 14 14 19 23 25 25 25 26 25 25 25 23 23 22 21 21 20 19 19 18 17 16 14 12 10 9 9 8 8 8 6 5
1 4 8 7 8 10 11 11 11 9 10 12 13 13 14 14 15 15 14 12 10 9 11 12 11 10 9 7 8 9 7 7 6 4 5 7 6 9 11 10 9 10 10 8 8 3 8 10 8 10 9 11 19 20 14 14 16 18 25 26 25 26 26 26 25 24 23 23 21 21 21 20 20 19 18 17 15 14 12 11 10 10 9 9 8 7
3 4 7 6 7 8 10 12 11 9 11 12 14 14 14 13 12 11 9 8 9 8 9 9 8 8 7 5 5 7 9 9 7 5 5 4 6 8 10 10 9 9 10 8 8 5 5 9 8 10 12 14 18 20 21 18 16 17 21 26 25 27 27 26 26 25 23 23 23 22 22 21 21 20 19 18 17 16 14 12 12 11 11 10 9 8
5 6 6 6 7 7 10 12 12 11 10 9 8 8 8 8 10 9 7 8 9 7 6 7 6 6 7 6 6 8 9 9 8 6 4 4 6 7 9 10 10 10 11 9 8 8 2 4 7 11 12 15 18 18 21 24 20 20 20 24 25 27 28 26 25 25 24 23 24 23 23 22 22 21 20 19 18 17 15 14 13 13 12 11 10 9
6 7 6 6 7 8 11 12 11 9 9 6 2 3 7 8 9 10 9 8 8 8 7 8 7 7 7 7 7 8 8 7 7 7 3 3 4 5 8 9 9 10 10 10 8 7 6 5 2 11 14 13 15 18 19 25 27 22 18 20 25 26 26 26 25 24 24 24 24 24 23 23 22 22 21 20 19 19 17 15 15 14 13 13 12 11
6 7 6 5 6 7 9 10 9 8 7 5 2 3 8 10 7 8 11 11 12 12 9 9 9 9 8 7 6 6 5 5 6 6 2 4 4 4 6 7 8 8 8 7 9 8 8 10 7 7 15 13 13 16 17 20 24 23 19 20 24 25 25 25 24 24 24 24 24 24 24 23 23 23 22 21 21 20 18 16 17 16 15 14 13 12
7 6 4 5 6 6 7 7 7 7 8 10 9 7 7 7 6 7 9 10 11 11 8 8 9 8 9 8 5 3 3 5 6 3 4 5 3 3 4 5 6 7 6 5 6 8 8 10 11 5 7 11 11 13 15 16 20 22 19 21 23 24 24 24 23 23 24 24 24 25 24 24 24 24 23 23 22 21 19 19 18 17 16 15 14 13
7 5 4 5 6 6 6 7 8 10 11 10 9 5 3 3 5 5 5 6 8 10 9 8 6 6 8 8 5 2 2 4 5 2 4 5 4 5 6 5 5 6 6 6 5 5 6 7 10 12 9 6 10 11 12 13 15 18 19 22 22 23 23 24 23 23 24 25 25 25 25 25 25 25 24 24 24 22 20 20 20 18 18 17 16 15
6 6 5 5 5 6 7 7 7 9 8 7 4 3 4 3 4 5 5 5 7 9 7 5 4 5 6 6 4 4 3 3 4 2 6 6 6 7 8 7 6 8 8 5 5 5 5 6 7 11 12 9 10 12 13 15 16 17 20 22 22 22 23 23 23 24 25 25 26 26 26 25 25 26 26 25 24 23 22 22 21 20 19 19 17 16
7 6 6 6 6 6 7 7 7 6 6 7 4 3 2 2 5 5 5 4 3 3 1 3 5 5 5 6 6 5 3 3 2 3 5 7 7 7 8 8 8 9 10 7 6 7 5 3 4 4 7 9 9 8 12 16 19 19 20 20 20 20 22 23 24 25 26 26 26 26 26 26 26 26 26 25 25 24 24 23 22 21 20 19 18 17
7 5 6 7 8 8 8 7 7 5 5 9 6 1 3 3 6 3 5 1 4 4 4 5 6 6 6 6 6 4 3 3 2 2 5 7 9 8 8 9 10 10 12 9 6 7 5 0 4 2 2 4 5 5 7 11 16 17 17 18 18 19 21 23 24 24 24 24 24 25 25 25 26 27 26 25 25 25 24 24 22 22 22 20 18 18
5 4 5 7 8 8 8 7 7 5 6 8 6 2 1 4 5 3 5 2 6 6 5 4 4 5 6 5 4 3 3 4 4 5 6 7 8 9 9 11 12 12 14 12 5 5 8 5 3 4 3 3 3 4 7 9 10 12 14 15 17 19 20 22 22 21 21 22 22 24 25 25 26 27 26 25 26 25 24 24 23 23 23 21 19 19
3 3 5 7 7 8 8 7 7 5 3 6 6 2 2 2 3 3 1 2 3 4 5 4 4 4 4 4 4 3 4 5 5 6 7 6 6 7 7 10 12 11 13 13 7 3 7 8 4 4 5 5 4 4 7 8 9 10 12 14 16 18 18 18 19 18 17 19 19 21 23 24 25 27 26 25 26 26 24 24 23 23 23 21 20 20
2 2 4 5 6 7 7 7 7 5 2 5 6 3 4 5 5 2 2 2 3 4 5 6 5 3 4 3 3 4 5 6 6 6 7 7 7 7 8 9 10 10 12 13 12 9 8 9 9 7 5 6 7 7 8 9 9 11 12 13 14 15 15 15 18 18 17 19 21 22 23 24 25 26 25 25 27 27 25 24 23 23 23 21 20 21
4 4 5 5 5 5 6 6 5 4 1 2 4 4 3 4 4 4 4 4 4 4 4 6 6 5 5 4 4 5 5 6 6 7 8 8 7 8 9 9 10 11 12 13 15 13 10 10 10 9 8 6 8 9 9 9 10 12 13 13 13 13 13 14 15 17 19 21 21 21 21 23 25 26 24 25 27 26 25 25 24 23 23 22 21 21
2 2 2 3 4 6 6 7 7 8 7 4 2 3 7 7 5 6 7 6 6 6 5 5 7 8 7 6 7 6 5 6 6 6 7 8 8 8 9 11 11 11 12 14 16 14 11 11 11 10 10 11 8 9 9 10 11 14 16 14 12 12 13 14 14 16 18 20 21 22 22 22 24 24 23 24 27 26 25 26 25 24 24 23 21 21
6 6 4 4 6 8 8 8 10 11 11 10 5 3 5 9 9 8 8 6 6 7 8 8 9 10 9 9 9 8 6 6 7 8 8 8 8 9 10 12 12 11 11 13 16 15 11 10 11 10 12 13 11 11 12 12 14 15 16 14 14 14 14 14 15 16 17 18 22 25 25 23 24 24 23 24 27 26 25 26 26 24 24 24 22 22
7 5 5 7 8 7 6 7 9 10 10 9 9 6 6 8 10 9 8 7 6 8 9 9 10 11 11 10 10 10 9 8 8 9 9 8 9 9 10 11 12 12 12 12 14 16 14 11 12 12 13 13 13 13 15 15 15 15 14 13 13 13 13 14 16 16 18 19 21 23 25 25 26 26 24 24 25 25 24 26 26 25 25 25 24 22
4 4 4 8 9 8 8 10 12 13 12 10 10 8 7 7 8 8 8 8 7 7 9 9 9 10 9 9 10 11 11 11 10 9 9 8 8 9 9 12 14 14 13 13 14 15 15 14 13 14 13 13 14 15 16 17 17 16 16 16 15 14 14 16 17 17 18 19 20 22 24 25 27 27 25 25 26 25 25 26 26 26 26 27 27 26
8 7 7 9 10 9 10 12 12 12 12 10 9 9 8 8 8 9 9 10 9 10 11 10 9 9 9 9 10 11 12 12 10 9 10 10 8 8 10 14 17 16 14 14 15 15 16 16 16 16 14 13 13 15 17 19 20 20 20 19 19 18 17 18 18 19 20 19 20 22 23 24 26 28 27 26 26 27 26 28 29 28 27 28 29 28
9 10 9 8 8 8 8 9 9 9 9 9 9 11 11 11 11 12 12 12 13 12 11 11 11 11 11 12 13 12 11 11 11 10 10 9 8 9 12 15 17 17 15 15 16 16 16 17 18 18 17 15 15 16 17 17 19 20 21 20 19 19 19 18 19 20 20 20 21 22 23 24 26 28 27 26 26 26 26 27 29 28 27 27 29 29
9 9 8 8 8 9 10 12 11 9 9 9 10 12 11 10 11 13 13 13 14 13 12 13 14 13 12 13 15 14 12 11 12 12 10 10 11 13 14 15 17 18 18 18 16 16 17 19 19 19 19 17 16 17 17 18 17 18 19 20 21 20 20 20 21 20 21 21 22 24 25 25 26 28 28 27 26 26 25 25 27 28 27 26 28 29
Wind_Direction
312 302 323 315 348 13 9 11 346 320 39 129 134 4 147 185 211 263 293 149 192 227 220 190 188 207 248 250 216 177 186 199 192 201 199 166 162 183 186 168 162 159 142 147 161 166 164 169 173 178 182 183 181 181 180 168 158 156 155 151 151 170 236 337 26 54 44 39 45 41 34 74 82 63 58 72 57 33 24 19 13 7 6 356 354 357
315 285 323 11 3 4 356 359 327 307 355 107 139 296 207 164 115 135 170 153 192 217 194 204 220 215 242 251 213 167 185 203 195 197 198 186 174 171 183 171 152 156 152 150 157 166 170 172 177 181 187 188 178 178 183 172 165 160 156 154 154 157 111 72 69 64 52 37 34 38 31 40 70 68 55 62 58 39 29 24 19 14 11 359 355 359
288 270 7 24 1 334 307 318 322 311 341 54 137 186 255 117 82 83 200 204 194 215 179 185 214 208 234 245 218 181 202 206 208 213 201 193 184 153 168 181 158 152 154 156 161 166 173 178 179 185 195 187 167 173 187 173 167 162 158 161 157 149 119 96 81 77 78 63 52 51 45 41 63 83 70 57 70 54 50 48 27 17 13 5 5 6
271 12 40 17 348 307 303 300 305 296 318 360 131 194 315 23 84 77 240 216 173 206 239 199 208 197 218 227 207 210 236 236 231 239 216 178 159 130 159 177 170 160 158 162 165 167 179 192 185 185 197 178 154 180 192 175 174 167 166 167 159 154 133 112 86 93 92 62 66 69 68 61 68 80 55 29 49 46 52 52 30 20 15 12 24 20
162 50 29 330 308 305 314 308 290 311 3 344 344 353 0 353 25 83 181 199 130 249 287 318 268 210 209 232 204 197 224 230 221 230 224 157 134 136 150 152 170 182 168 159 162 167 183 213 195 180 187 173 164 193 191 179 185 174 171 166 156 157 142 127 97 88 51 35 56 49 84 93 79 82 59 29 31 27 35 40 21 17 19 21 32 27
78 45 354 305 319 310 301 304 312 1 351 339 24 357 334 338 352 69 122 154 115 287 356 346 284 282 4 271 226 190 223 232 218 213 216 116 114 133 144 145 163 176 165 152 153 157 168 223 219 188 182 177 178 195 187 182 188 174 169 167 162 163 150 145 121 92 69 57 52 39 55 56 44 71 65 32 16 26 25 26 15 17 27 30 34 31
81 55 9 332 353 313 280 347 38 9 300 332 51 355 323 335 329 340 353 273 295 1 35 1 304 332 331 308 259 223 240 259 259 224 180 91 101 136 150 147 155 154 150 147 140 146 160 196 221 202 183 178 183 190 181 181 185 173 169 169 172 170 160 161 144 116 98 79 67 62 66 59 43 58 59 25 42 50 27 20 19 21 32 36 36 35
308 339 48 236 269 310 288 1 51 339 306 20 31 343 315 315 317 324 310 299 329 9 3 342 268 271 299 308 316 248 238 264 283 248 149 96 113 165 165 145 151 152 155 158 150 156 169 188 209 205 183 177 184 185 177 180 181 172 171 176 179 174 166 163 149 135 118 106 99 88 83 83 67 51 31 12 69 54 23 23 26 22 33 38 39 37
292 325 356 295 279 36 309 346 50 337 320 35 10 328 316 320 325 316 295 307 327 268 284 199 192 246 254 254 285 220 256 294 74 163 135 116 136 165 158 143 150 157 159 163 163 166 177 188 199 204 187 178 182 180 174 180 181 174 176 183 183 174 167 161 149 138 123 120 116 103 95 94 79 35 359 18 57 47 17 24 30 26 32 34 39 40
74 330 347 318 308 17 331 339 21 326 321 17 339 292 275 291 306 313 314 325 318 305 320 233 190 258 305 194 229 171 240 239 135 157 157 141 142 142 142 146 154 164 164 163 164 167 179 189 197 202 193 183 180 176 175 181 180 177 182 189 185 174 168 163 157 144 129 128 122 114 109 98 83 50 26 19 44 47 24 29 30 28 32 34 38 38
90 307 315 294 323 352 322 320 1 313 321 335 299 277 264 272 296 324 311 304 320 324 310 304 274 303 319 177 230 250 268 205 123 134 139 143 140 132 141 157 161 168 170 168 167 169 183 192 193 194 194 190 179 170 177 182 180 183 188 190 186 175 170 164 162 153 139 138 130 128 124 111 109 68 61 34 39 41 30 35 31 26 36 41 40 38
176 221 202 142 356 325 285 268 184 219 284 284 288 295 303 308 323 314 298 269 305 309 281 308 330 324 313 181 210 223 243 219 116 132 146 156 157 145 149 164 167 167 167 173 173 172 187 190 184 190 196 191 176 167 176 181 182 188 191 191 187 176 171 167 167 162 149 144 132 131 132 117 110 57 56 63 54 39 24 35 33 28 40 44 42 38
286 278 38 148 120 317 288 280 197 200 218 241 281 318 315 318 326 317 322 298 295 320 334 345 345 327 326 59 358 231 209 89 117 150 157 152 154 153 158 166 168 167 168 176 179 177 188 184 182 193 195 187 177 171 178 181 183 191 193 192 187 176 172 171 172 169 157 150 138 134 135 125 117 91 49 30 61 51 29 40 42 35 39 40 40 38
267 298 307 238 132 52 298 302 316 301 320 290 293 329 317 315 315 307 312 306 314 341 332 331 333 316 355 58 334 311 105 84 115 145 145 142 147 154 161 164 166 172 174 177 178 178 186 185 186 193 189 184 182 178 180 181 184 191 194 192 188 179 175 175 175 171 162 152 145 140 138 135 127 118 96 35 59 53 31 43 53 50 41 34 38 36
265 266 290 286 57 20 294 326 7 332 316 304 306 319 312 318 320 318 322 318 327 339 323 319 318 328 356 224 252 284 324 110 111 118 139 151 154 159 162 159 163 171 174 176 177 177 185 187 185 188 187 185 182 181 181 181 183 190 193 192 189 181 177 178 176 171 163 153 147 146 147 148 143 137 126 84 69 51 35 40 49 56 47 31 31 28
290 317 93 9 344 322 289 330 9 309 285 321 331 330 340 350 337 320 318 322 328 322 314 311 295 312 330 226 230 324 2 55 87 83 102 133 145 157 161 152 156 164 171 178 178 178 186 186 181 184 186 182 179 181 183 181 182 186 189 193 191 183 179 178 175 170 162 154 151 150 149 153 149 136 117 99 91 68 47 40 35 45 47 34 23 16
308 328 83 228 255 240 288 330 339 304 314 332 323 343 351 339 329 320 311 332 338 299 292 310 300 300 280 165 35 9 20 50 67 79 83 97 127 143 154 155 157 163 170 176 177 179 184 181 178 179 178 173 175 182 185 183 180 180 187 194 192 184 180 177 174 170 161 154 152 152 151 156 156 144 130 124 128 110 86 69 46 37 40 34 18 13
354 297 275 276 257 185 97 328 296 284 309 311 314 354 343 304 290 324 305 316 325 299 312 328 311 314 325 42 74 352 45 54 43 75 101 120 125 133 153 163 163 163 165 173 178 177 172 169 172 176 172 172 179 185 188 187 180 177 186 195 192 185 180 177 172 167 161 155 153 155 158 159 156 153 149 147 148 138 129 106 69 33 25 32 17 12
31 293 278 326 357 59 106 280 269 236 225 272 306 328 317 295 316 333 311 313 315 304 309 315 310 317 336 33 88 68 46 54 15 19 51 77 98 107 118 146 162 166 158 172 181 170 166 173 177 178 176 177 184 187 190 191 180 174 185 195 194 186 180 174 170 165 161 158 157 158 161 161 156 154 152 155 170 164 135 102 81 34 8 52 29 10
9 308 305 311 323 342 314 290 314 202 178 228 280 294 312 340 333 315 313 310 307 305 304 312 316 318 358 40 52 59 55 31 8 14 6 21 67 75 72 117 157 174 165 171 188 175 169 180 183 179 177 176 180 185 190 192 181 173 183 194 193 186 179 173 169 166 162 160 162 161 163 166 161 157 159 161 166 142 105 76 77 38 350 56 50 18
336 295 310 298 280 281 284 323 342 340 323 300 298 300 317 327 310 304 300 286 290 302 304 311 308 311 1 26 16 56 78 18 334 5 353 4 65 80 77 99 137 173 186 176 189 186 171 177 179 176 178 178 176 182 189 190 183 176 183 192 190 184 178 173 170 168 165 162 162 163 166 166 157 158 164 157 147 135 125 102 75 40 329 39 51 21
8 312 311 310 305 300 301 318 328 306 305 318 318 307 311 319 319 309 292 294 310 307 301 307 300 308 334 356 38 57 45 320 12 20 350 352 83 95 91 95 120 163 217 174 176 180 164 167 171 170 173 176 176 181 185 186 184 182 185 189 188 183 178 174 172 169 166 163 163 165 165 161 157 159 156 149 149 150 153 157 130 156 317 33 43 4
16 307 298 295 288 286 291 300 307 307 326 335 317 299 307 317 314 297 292 311 321 309 306 304 288 290 340 4 45 52 339 347 34 7 325 328 48 95 100 95 97 75 342 85 158 171 161 160 169 171 170 173 181 185 184 185 188 186 186 186 184 183 179 174 173 171 166 163 163 166 165 160 160 159 153 155 160 157 150 150 152 168 56 35 29 355
349 292 289 290 285 290 292 288 290 336 357 336 292 291 313 315 312 308 306 312 311 301 302 294 284 288 34 22 9 359 311 321 324 315 319 329 10 86 113 113 92 88 10 16 73 131 144 155 174 181 176 176 184 189 190 194 193 186 185 187 184 182 180 175 173 170 165 164 164 166 167 162 160 160 159 161 162 161 158 158 173 183 63 48 65 81
325 314 318 304 301 303 287 270 284 334 343 308 303 331 338 320 314 312 306 307 298 294 295 286 284 294 38 53 340 305 305 300 299 329 340 314 325 105 137 137 131 158 183 46 80 112 124 156 193 199 188 180 186 198 202 198 191 184 185 187 184 181 179 176 173 169 166 165 165 167 169 162 160 164 164 163 163 163 165 172 182 175 87 80 125 128
311 317 319 302 302 309 301 301 323 326 319 307 307 313 311 305 305 303 303 293 281 294 299 289 283 294 318 355 325 308 321 327 318 320 310 298 304 324 128 148 172 197 178 171 177 156 151 174 203 206 189 180 190 205 206 194 185 185 187 186 183 181 178 175 173 170 167 165 165 169 169 163 163 167 166 167 167 164 172 184 181 151 124 134 137 131
300 285 285 278 275 284 292 296 302 300 293 290 289 290 289 289 291 291 283 278 289 304 297 284 294 306 315 323 319 317 322 321 314 312 307 306 319 325 309 233 218 223 191 178 183 181 175 181 196 200 185 198 209 206 198 190 187 185 185 185 182 179 178 176 174 170 166 165 167 170 169 165 166 169 167 167 168 170 178 176 155 133 133 140 140 143
289 279 279 280 277 282 291 293 291 286 282 285 290 292 294 294 294 291 282 282 295 300 287 290 301 301 303 309 309 310 311 303 296 295 296 303 307 302 294 285 277 266 253 235 199 179 179 185 188 186 177 196 237 223 198 188 188 185 182 183 181 179 178 175 174 170 166 166 168 169 170 167 166 168 167 166 169 177 178 160 144 143 144 142 149 153
304 288 288 291 289 294 300 298 292 286 286 287 288 290 292 290 286 281 275 275 277 275 276 285 291 288 292 300 300 300 302 298 292 288 290 295 291 285 283 282 278 268 263 264 238 186 180 183 179 179 171 159 188 258 232 194 184 182 180 181 180 180 178 174 173 172 167 168 170 169 171 169 166 167 168 167 172 178 170 151 146 152 150 147 148 139
341 298 311 309 297 294 294 290 286 286 290 289 285 284 285 284 284 281 276 270 270 281 286 285 286 289 291 297 302 306 306 294 288 292 299 298 299 301 299 296 296 296 292 293 296 211 170 171 167 165 169 157 160 211 263 235 198 183 179 182 182 179 177 175 174 173 170 170 171 170 170 170 167 167 169 170 172 174 167 155 153 154 152 152 152 144
77 318 335 325 297 292 290 284 281 295 313 307 293 285 281 281 281 279 279 279 279 287 292 290 293 294 293 308 326 329 326 314 311 320 310 305 322 327 316 310 312 309 302 300 315 328 147 159 168 159 165 171 168 177 211 243 241 204 180 181 185 178 176 177 176 175 173 171 171 172 172 170 169 168 170 171 172 171 169 163 160 159 155 153 153 150
227 282 307 298 284 288 293 291 290 302 313 302 289 282 278 281 283 276 271 277 279 277 279 282 289 294 297 321 341 319 312 314 315 311 305 323 347 338 320 313 311 308 303 294 300 309 155 162 177 169 171 180 179 182 188 201 244 241 194 182 185 179 176 179 179 176 175 173 172 174 173 171 170 170 170 172 172 171 169 165 162 162 159 155 153 153
274 279 283 283 285 286 289 294 299 300 293 283 284 289 285 291 305 302 271 258 276 288 283 279 283 288 294 304 311 301 300 309 316 318 338 20 8 343 328 326 328 329 324 311 302 305 291 168 177 181 185 183 180 186 186 183 208 238 215 189 184 179 176 179 180 177 176 174 174 175 175 173 172 171 171 174 173 169 168 167 166 165 162 159 157 157
270 279 284 282 282 285 289 294 295 286 274 275 318 330 300 294 308 312 296 281 288 287 278 285 289 287 289 293 298 298 301 310 311 308 327 49 35 348 334 338 345 345 336 331 332 330 340 7 99 175 190 199 188 185 188 186 193 213 220 201 187 178 177 179 181 180 178 176 176 177 175 175 174 172 172 173 171 169 169 170 168 166 164 162 160 161
266 267 275 279 275 277 286 289 281 267 267 284 296 264 275 279 288 302 299 294 291 283 280 290 292 290 291 286 283 292 302 305 295 289 325 61 55 358 339 348 351 345 341 346 354 359 0 1 10 168 187 203 201 187 186 190 191 197 214 213 192 179 178 181 182 183 180 177 178 178 176 177 176 172 173 173 171 170 172 171 167 165 166 166 163 164
265 268 272 278 273 269 271 271 267 274 290 299 298 290 285 284 286 290 280 274 281 286 285 281 282 298 305 292 275 280 298 301 298 308 62 63 41 338 350 6 349 339 359 24 18 10 3 354 349 324 212 202 204 199 192 191 187 187 203 214 198 181 181 184 184 185 183 180 180 179 178 179 177 173 173 173 170 172 174 171 168 167 168 167 166 167
252 262 260 261 265 270 273 267 267 280 289 290 293 313 357 346 326 320 299 278 282 286 284 283 298 321 313 294 277 289 346 323 302 329 58 41 3 349 357 359 339 335 2 36 55 37 11 359 348 335 314 239 210 209 204 199 187 180 196 211 201 185 184 187 186 187 186 182 182 181 180 180 178 174 174 173 171 174 175 171 169 170 170 169 168 169
236 244 253 262 262 262 268 271 272 277 280 284 305 42 51 356 339 340 320 292 270 261 264 289 323 328 316 313 324 351 11 333 299 359 35 10 349 347 338 329 333 338 339 3 69 67 21 8 3 342 324 289 235 206 199 201 194 188 199 206 197 188 189 191 190 190 189 186 185 184 182 182 179 176 175 175 173 175 175 171 171 173 173 171 171 171
231 235 247 255 257 259 263 267 267 265 271 286 309 76 97 345 10 358 307 284 267 241 232 358 344 333 336 347 351 350 336 301 297 51 32 353 334 339 336 331 337 335 321 329 51 57 21 20 36 350 313 293 269 223 203 200 192 191 198 197 192 191 193 195 196 194 192 190 187 184 184 183 181 178 177 176 175 175 174 172 172 174 174 174 172 172
242 248 254 252 251 254 253 256 263 264 272 281 284 223 187 130 71 4 274 277 42 38 56 38 1 348 350 347 338 321 296 299 331 8 357 345 335 334 336 330 326 324 316 321 29 38 352 298 135 146 247 276 289 279 248 219 196 191 194 192 193 198 198 200 202 200 195 192 188 186 186 185 182 180 179 177 176 176 175 173 174 175 175 174 174 174
225 221 238 247 254 257 253 256 264 260 270 287 299 322 2 109 115 245 263 40 42 24 30 23 353 346 343 332 322 311 314 331 334 326 334 342 334 328 328 323 317 318 318 321 358 13 323 299 156 153 188 222 258 272 271 258 224 202 198 197 201 206 207 206 206 205 200 193 189 188 187 187 184 180 180 179 176 174 175 174 175 176 175 175 175 176
234 223 232 236 246 257 256 258 265 262 302 336 335 352 59 106 197 237 290 33 9 6 4 340 329 340 325 313 317 316 315 322 318 311 315 317 313 315 320 319 317 317 317 315 311 289 288 286 263 214 197 191 199 219 238 254 254 234 216 211 211 212 213 210 206 208 201 191 196 200 191 186 184 181 180 180 176 174 174 175 176 177 177 178 178 177
262 255 255 239 237 255 258 257 266 269 330 349 324 275 195 212 245 283 33 340 317 351 345 317 318 324 298 293 311 305 300 305 305 299 298 302 308 311 309 309 311 311 311 307 301 291 282 276 274 271 238 190 183 201 215 224 242 248 237 228 222 216 216 212 206 206 199 193 204 210 196 183 182 181 181 180 177 175 174 174 176 177 178 180 179 178
247 243 267 263 249 258 257 248 262 280 289 355 336 311 269 258 286 314 311 290 297 313 306 298 304 307 301 299 296 293 296 298 298 299 299 300 306 309 306 302 300 302 305 304 303 302 293 272 264 271 279 252 200 194 212 218 225 242 243 236 228 219 216 213 207 203 197 194 201 205 193 182 180 182 183 182 178 176 175 174 176 177 179 183 181 178
284 271 281 280 269 272 273 275 295 311 313 311 312 295 295 297 294 287 287 294 307 307 299 296 299 302 309 308 300 296 296 292 291 294 295 298 302 301 298 296 294 296 299 298 297 296 290 279 265 248 254 262 228 190 205 221 222 232 237 232 226 220 214 211 208 202 197 195 196 195 189 183 179 182 186 184 180 178 177 176 176 177 180 184 184 181
279 273 251 252 270 275 276 280 285 289 295 299 296 286 295 295 289 285 290 297 302 299 296 296 296 292 287 283 282 282 283 288 295 291 285 288 292 288 286 285 282 283 286 289 292 293 290 287 279 251 235 244 235 204 206 221 226 231 236 229 220 217 212 208 206 203 198 197 194 189 186 183 179 182 189 188 184 184 182 179 178 179 180 184 187 186
280 296 281 269 273 275 273 273 275 279 288 297 298 294 287 286 288 291 290 285 287 297 304 308 306 300 293 286 283 284 284 286 289 289 287 285 281 279 282 283 281 279 276 276 282 288 284 273 266 255 237 233 233 221 213 218 225 230 235 233 226 223 217 210 206 204 201 200 195 189 187 184 180 182 188 189 188 188 187 183 182 181 181 185 188 189
302 354 318 278 271 272 276 278 280 282 282 280 283 286 284 285 291 295 295 297 301 299 295 293 292 293 293 290 287 288 288 286 282 283 287 285 281 281 283 283 281 276 271 268 271 276 278 271 263 258 245 230 230 230 221 217 220 224 226 225 222 224 225 218 209 204 203 201 195 190 189 187 184 184 187 189 192 194 190 187 187 186 186 189 190 190
297 298 284 278 277 275 275 279 287 293 292 292 302 312 315 319 318 311 305 301 291 281 279 281 285 291 293 289 285 283 284 283 280 277 278 278 276 277 279 280 281 277 270 269 267 263 263 264 263 264 258 239 233 237 232 221 218 219 222 221 216 215 220 220 211 205 203 201 197 193 192 190 188 188 189 191 195 199 197 193 191 190 191 194 196 195
280 278 279 284 283 277 281 294 306 306 296 299 311 314 315 319 315 307 303 299 294 294 299 298 294 292 291 289 286 282 279 279 278 274 274 276 272 271 277 284 289 288 280 274 270 265 263 262 260 262 261 252 243 245 246 240 230 222 220 221 218 213 213 213 212 207 203 201 199 195 192 190 189 191 193 195 198 202 202 199 197 196 195 197 200 200
260 269 278 282 278 282 294 301 304 300 295 302 307 300 298 306 306 300 299 300 302 307 307 300 294 292 290 289 289 287 284 283 285 284 281 279 276 274 274 279 285 289 286 281 275 270 267 266 261 255 254 253 247 243 244 249 250 241 228 219 215 215 214 210 208 209 206 203 202 198 194 193 191 191 195 199 200 202 202 199 198 200 201 201 202 202